Date,TemperatureHighF,TemperatureAvgF,TemperatureLowF,DewpointHighF,DewpointAvgF,DewpointLowF,HumidityHigh,HumidityAvg,HumidityLow,PressureMaxIn,PressureMinIn,WindSpeedMaxMPH,WindSpeedAvgMPH,GustSpeedMaxMPH,PrecipitationSumIn
2013-4-1,62,52,38,-100,-100,-100,0,0,100,0.00,40.00,0,-999,0,0.15
2013-4-2,38,36,34,-100,-100,-100,0,0,100,0.00,40.00,0,-999,0,0.05
2013-4-3,36,35,34,-100,-100,-100,0,0,100,0.00,40.00,0,-999,0,0.28
2013-4-4,48,40,34,-100,-100,-100,0,0,100,0.00,40.00,0,-999,0,0.07
2013-4-5,64,50,36,-100,-100,-100,0,0,100,0.00,40.00,0,-999,0,0.01
2013-4-6,71,60,50,-100,-100,-100,0,0,100,0.00,40.00,0,-999,0,0.00
2013-4-7,79,62,50,-100,-100,-100,0,0,100,0.00,40.00,0,-999,0,0.00
2013-4-8,80,64,59,-100,-100,-100,0,0,100,0.00,40.00,0,-999,0,0.00
2013-4-9,67,52,30,-100,-100,-100,0,0,100,0.00,40.00,0,-999,0,0.10
2013-4-10,44,34,25,-100,-100,-100,0,0,100,0.00,40.00,0,-999,0,0.28
2013-4-11,62,43,27,-100,-100,-100,0,0,100,0.00,40.00,0,-999,0,0.11
2013-4-12,60,48,38,-100,-100,-100,0,0,100,0.00,40.00,0,-999,0,0.00
2013-4-13,73,56,43,-100,-100,-100,0,0,100,0.00,40.00,0,-999,0,0.00
2013-4-14,81,67,56,-100,-100,-100,0,0,100,0.00,40.00,0,-999,0,0.00
2013-4-15,67,57,50,-100,-100,-100,0,0,100,0.00,40.00,0,-999,0,0.00
2013-4-16,54,48,44,-100,-100,-100,0,0,100,0.00,40.00,0,-999,0,0.00
2013-4-17,47,46,41,-100,-100,-100,0,0,100,0.00,40.00,0,-999,0,0.23
2013-4-18,47,39,34,-100,-100,-100,0,0,100,0.00,40.00,0,-999,0,0.07
2013-4-19,65,46,32,-100,-100,-100,0,0,100,0.00,40.00,0,-999,0,0.00
2013-4-20,68,54,42,-100,-100,-100,0,0,100,0.00,40.00,0,-999,0,0.00
2013-4-21,67,57,48,-100,-100,-100,0,0,100,0.00,40.00,0,-999,0,0.00
2013-4-22,79,62,48,-100,-100,-100,0,0,100,0.00,40.00,0,-999,0,0.00
2013-4-23,45,35,33,-100,-100,-100,0,0,100,0.00,40.00,0,-999,0,0.00
2013-4-24,58,42,27,-100,-100,-100,0,0,100,0.00,40.00,0,-999,0,0.00
2013-4-25,64,55,42,-100,-100,-100,0,0,100,0.00,40.00,0,-999,0,0.00
2013-4-26,75,62,56,-100,-100,-100,0,0,100,0.00,40.00,0,-999,0,0.78
2013-4-27,71,60,51,-100,-100,-100,0,0,100,0.00,40.00,0,-999,0,0.78
2013-4-28,85,67,49,-100,-100,-100,0,0,100,0.00,40.00,0,-999,0,0.00
2013-4-29,89,71,59,-100,-100,-100,0,0,100,0.00,40.00,0,-999,0,0.00
2013-4-30,86,77,64,-100,-100,-100,0,0,100,0.00,40.00,0,-999,0,0.00